Temperature
27 28 28 27 26 25 24 23 22 22 22 21 19 18 17 17 16 16 16 16 15 14 14 13 13 13 13 12 12 12 12 11 11 11 11 11 11 10 10 10 10 10 10 11
26 28 27 25 24 23 23 22 22 21 21 21 19 18 17 17 17 16 16 16 15 15 14 14 13 13 12 12 12 12 11 11 11 11 11 11 11 10 10 10 10 10 10 10
25 27 27 22 21 21 21 21 21 20 20 19 18 17 17 17 16 17 16 15 14 14 14 13 13 12 12 12 11 11 11 10 10 10 10 11 11 11 11 10 10 10 10 10
25 26 23 20 22 22 21 21 21 20 18 18 17 17 16 16 16 15 14 14 13 13 13 12 12 12 12 11 11 10 10 9 9 9 9 9 10 10 10 10 10 10 10 10
25 25 23 21 21 21 20 20 19 18 18 17 16 16 16 16 15 14 14 13 13 12 12 12 12 11 11 11 10 10 9 9 8 8 8 8 8 9 9 9 10 10 10 10
24 23 22 20 21 21 21 20 18 17 17 16 16 15 15 14 14 13 13 13 12 12 12 11 11 11 10 10 10 9 9 8 7 7 7 7 7 8 8 9 9 9 10 10
23 22 22 21 21 20 18 17 17 17 16 15 15 14 14 14 13 13 13 12 12 12 11 11 11 10 10 9 9 8 8 7 6 6 6 6 7 7 7 8 8 9 9 9
22 21 21 21 20 18 17 17 16 16 15 15 14 14 14 13 13 13 12 12 12 11 11 10 10 9 8 8 7 7 6 6 5 5 5 6 6 6 7 7 8 8 8 9
21 21 21 20 19 18 17 16 16 15 15 14 14 14 14 13 13 12 12 11 11 10 10 9 8 7 6 6 5 5 4 4 4 5 5 5 5 6 6 7 7 7 8 9
20 21 20 19 18 17 16 16 15 15 14 14 14 13 13 13 12 12 11 10 9 8 8 7 6 5 4 4 3 3 3 3 4 4 4 5 5 5 6 6 7 7 8 8
20 20 18 18 17 16 16 15 15 14 14 14 13 13 12 12 11 11 9 8 7 6 5 4 3 3 3 2 2 2 3 3 3 4 4 5 5 5 6 6 6 7 7 7
18 18 17 17 16 16 15 15 14 14 13 13 13 12 12 11 10 9 8 6 5 4 3 3 2 2 2 2 2 2 3 3 4 4 4 4 5 5 5 6 6 6 7 7
18 17 16 16 16 15 15 14 14 13 13 12 12 11 11 10 9 7 6 4 3 3 2 2 2 2 3 3 3 3 3 3 4 4 4 4 4 4 5 6 6 6 7 7
17 16 16 16 15 15 14 14 13 13 12 12 11 10 9 8 7 6 4 4 3 3 3 3 3 3 3 3 3 3 4 4 4 4 4 4 4 4 5 5 6 6 7 7
17 16 16 15 15 14 14 13 13 12 12 11 10 9 8 7 5 4 4 3 3 3 3 3 3 3 4 4 4 4 4 3 3 3 4 4 4 4 5 5 6 6 6 7
16 16 15 15 14 13 13 12 12 11 11 10 9 8 7 6 5 4 4 4 4 3 4 3 4 4 4 4 4 4 4 3 3 3 3 4 4 4 5 5 6 6 6 7
16 16 15 14 13 13 12 12 11 11 10 9 8 7 6 5 4 4 4 4 4 4 4 4 4 4 4 5 5 4 4 4 3 3 4 4 4 5 5 6 6 6 6 7
16 15 14 14 13 12 12 11 10 10 9 8 7 6 5 4 4 4 4 4 5 5 5 5 5 5 5 5 5 5 5 5 5 4 4 5 5 5 6 6 7 7 7 6
15 15 14 13 12 12 11 10 10 9 8 7 6 6 5 4 4 4 5 5 5 5 5 6 6 6 6 6 6 6 6 6 6 6 6 6 7 7 7 7 7 7 7 7
15 15 14 13 12 11 11 10 9 9 8 7 6 5 5 4 5 5 5 5 5 5 5 6 6 6 6 6 6 7 7 7 7 8 8 8 7 7 8 7 7 7 7 7
15 14 13 12 11 11 10 10 9 8 7 6 5 5 4 5 5 6 6 6 6 6 6 7 7 7 7 7 7 7 7 7 8 8 8 8 8 7 7 7 7 7 7 7
14 13 12 11 10 10 10 10 9 8 7 6 5 5 5 5 6 7 7 6 7 7 7 7 7 8 8 8 8 7 7 7 7 7 7 7 7 7 7 7 6 7 7 7
13 12 11 10 10 10 10 9 9 8 7 6 5 5 5 4 5 5 6 7 8 8 8 8 8 8 8 9 8 8 8 8 8 8 7 7 7 7 7 7 7 7 7 7
12 12 11 10 10 10 10 9 9 8 6 6 5 5 5 5 5 6 7 8 8 9 9 8 9 9 9 9 9 9 9 9 9 9 9 8 8 8 8 9 9 9 9 9
12 11 11 10 10 10 10 9 8 7 6 6 5 5 5 5 5 6 7 8 9 9 9 9 9 9 9 9 10 10 10 10 10 10 10 10 10 10 10 10 10 10 11 11
12 11 12 10 10 10 9 9 8 7 6 5 5 4 4 5 5 6 7 8 9 9 9 9 9 9 9 10 10 10 11 11 11 11 11 11 11 11 11 11 12 12 12 12
12 12 12 12 11 9 9 8 7 6 5 4 4 4 4 4 5 6 7 8 8 9 9 9 9 9 9 9 10 10 11 11 11 12 12 12 12 12 12 12 12 12 12 12
Wind_Speed
18 19 16 10 11 13 12 11 11 16 19 11 9 12 15 16 17 19 20 19 16 13 11 10 10 9 9 10 10 10 10 11 13 13 13 13 12 11 11 12 14 12 11 9
18 16 4 10 12 12 11 12 14 17 17 11 12 15 18 19 21 23 21 17 11 9 9 9 9 10 10 10 10 9 9 10 11 12 13 14 14 13 12 12 12 11 10 9
12 15 10 6 11 12 12 13 15 20 18 15 16 19 22 23 25 22 19 21 20 17 12 10 10 10 10 9 10 10 10 11 11 12 13 13 14 13 13 12 12 11 9 9
11 12 7 6 6 10 13 16 18 15 16 17 20 20 20 21 20 22 25 24 21 20 17 16 14 14 10 13 11 11 11 12 12 13 14 13 12 12 12 11 10 10 10 9
8 13 5 5 9 14 17 18 12 15 19 22 25 25 22 20 24 24 23 21 19 21 23 17 16 15 14 14 12 13 14 13 14 15 15 15 15 13 12 11 10 9 9 10
10 13 9 8 13 17 17 10 15 22 23 25 26 23 21 24 26 25 22 21 20 22 21 17 13 13 15 17 16 16 15 14 15 15 16 17 16 13 13 11 10 10 10 9
11 13 4 10 17 17 13 14 22 23 24 25 23 23 24 27 25 23 22 20 19 18 18 14 13 13 15 16 17 15 13 14 15 14 16 18 16 13 12 13 13 11 10 9
9 9 6 15 15 13 14 17 21 24 24 24 25 26 26 25 23 23 23 22 22 17 16 12 11 13 16 17 16 13 14 17 17 15 17 18 14 13 11 11 11 11 10 10
6 8 10 14 14 16 18 21 21 23 25 26 27 28 28 25 23 24 23 22 20 19 17 13 12 14 19 18 17 17 18 20 18 18 15 15 16 15 12 10 10 10 10 11
8 10 14 15 16 19 20 21 23 24 26 27 28 29 29 26 24 24 22 22 21 21 21 19 18 18 17 18 18 20 21 19 17 16 16 14 12 11 11 10 9 8 9 10
12 12 14 14 18 20 21 23 24 25 26 26 28 28 28 25 24 24 23 22 22 23 23 23 21 20 20 18 17 18 17 16 15 14 14 13 11 10 10 8 6 3 3 5
8 12 14 18 20 20 22 23 25 26 27 26 26 27 28 26 24 23 23 22 22 21 22 22 21 20 19 17 15 15 15 14 11 10 10 10 9 9 11 11 9 8 7 6
9 13 14 18 19 20 21 24 24 25 25 26 26 26 26 25 25 24 22 22 21 22 22 21 20 19 18 15 14 15 14 13 10 9 9 9 8 8 8 8 12 11 9 10
9 11 15 16 18 20 22 24 24 24 24 24 24 25 26 26 26 25 24 23 22 22 21 19 19 18 16 14 14 14 13 12 10 8 8 8 8 8 7 7 7 7 6 8
10 12 14 17 18 20 21 23 24 24 25 25 24 25 27 26 25 24 23 23 21 20 19 18 17 16 14 13 13 13 9 6 5 6 5 5 6 7 7 7 6 4 5 5
11 12 14 16 18 20 22 23 23 24 25 25 25 26 25 23 23 23 23 22 21 20 19 17 17 16 15 14 12 9 6 6 5 3 3 4 4 5 5 5 4 3 5 7
11 12 15 16 18 20 21 21 22 23 24 25 26 26 24 23 22 23 23 22 20 18 16 16 16 17 15 12 9 5 4 3 3 4 3 3 3 5 5 4 4 6 7 10
9 11 12 14 16 18 20 21 21 22 22 23 25 25 23 22 22 23 23 21 19 18 17 17 17 17 13 11 9 6 4 3 1 1 1 2 3 4 5 5 6 9 11 11
10 11 12 13 14 15 17 18 19 20 21 22 23 23 22 20 20 21 21 19 17 18 19 19 20 15 11 12 12 5 3 2 1 1 3 4 5 4 3 4 8 10 11 11
9 10 12 13 14 14 15 17 18 18 19 21 22 22 22 21 19 20 21 17 14 15 19 18 16 12 10 11 13 8 6 4 1 1 1 3 4 4 5 7 8 8 8 8
9 11 12 12 13 14 15 16 16 17 19 20 20 21 20 19 18 17 17 15 17 20 21 17 11 9 9 11 12 7 6 6 6 4 3 2 3 3 4 4 4 5 6 7
8 9 11 12 12 13 13 14 15 16 18 19 20 20 20 19 19 19 17 14 18 22 19 13 11 10 12 12 9 6 2 2 2 3 2 2 1 1 1 1 2 3 5 7
7 8 9 10 11 13 13 13 14 14 16 18 18 19 18 14 11 13 16 16 17 24 18 12 14 15 14 10 8 6 2 1 2 3 4 3 3 3 3 3 4 6 8 9
6 7 8 8 10 11 12 13 13 12 15 15 16 16 15 13 12 12 12 18 21 23 16 14 18 18 13 8 8 7 4 2 2 2 3 3 3 4 5 6 7 8 9 12
6 7 8 7 9 8 10 11 12 13 15 14 17 17 14 11 12 13 14 17 21 21 16 16 18 18 13 11 11 9 7 5 5 3 2 2 3 5 6 7 7 8 9 9
6 7 6 5 5 5 7 9 10 11 12 14 14 14 14 13 14 13 13 16 19 19 17 15 16 15 13 12 12 12 12 9 5 1 2 3 3 3 4 6 8 7 7 7
8 8 6 5 3 6 7 7 8 10 11 13 14 14 14 14 13 14 15 14 15 15 15 15 16 15 15 15 15 15 14 14 13 9 4 2 4 5 6 7 6 6 6 6
Wind_Direction
317 313 322 360 24 21 16 8 336 333 329 356 15 344 327 316 312 310 304 296 285 278 274 272 272 271 274 272 273 272 269 260 257 258 262 265 262 256 258 262 266 263 264 269
311 312 23 65 39 22 12 1 342 327 321 358 349 331 318 317 318 313 310 319 324 311 302 307 316 316 311 303 297 290 287 286 281 271 264 261 258 254 253 255 257 254 253 257
307 310 302 57 26 12 359 347 333 320 325 339 330 320 321 324 316 317 338 335 325 318 314 309 303 293 285 289 294 296 297 300 299 294 288 279 270 255 249 250 253 250 250 258
308 329 357 65 23 358 340 331 334 349 354 339 325 325 323 313 324 337 327 320 317 314 312 306 302 300 295 297 290 291 294 296 296 297 297 297 291 275 257 253 254 251 252 258
336 337 6 95 24 360 334 320 21 354 336 331 329 319 314 329 333 320 314 313 311 308 305 302 298 295 291 289 288 288 289 291 293 289 287 290 290 291 287 271 259 256 255 248
347 334 346 41 6 348 324 300 10 345 334 330 326 320 321 325 319 315 314 310 304 302 299 295 293 293 288 287 285 282 283 289 293 289 284 281 278 281 287 284 272 257 248 243
343 325 55 14 355 347 335 326 333 330 328 324 322 315 312 315 316 314 309 305 303 300 298 296 293 292 288 292 291 286 287 295 294 288 284 280 274 268 270 273 271 264 258 252
335 330 357 0 353 351 327 325 328 326 322 319 316 313 313 314 313 310 310 309 308 305 302 299 299 303 303 304 306 302 299 296 293 286 281 278 274 267 260 262 267 267 258 252
329 315 336 359 348 343 338 329 325 322 320 319 316 316 316 315 313 314 315 314 313 313 310 310 313 316 310 309 309 303 296 291 287 282 275 273 272 269 265 258 257 258 254 246
313 310 341 346 343 338 332 326 324 323 322 322 320 318 316 316 317 318 320 321 323 322 319 317 319 317 309 304 300 294 288 285 282 277 272 267 264 263 263 258 250 246 250 258
311 340 339 331 334 331 326 327 326 326 326 324 321 320 320 320 322 326 327 329 331 326 321 318 316 309 302 297 292 287 285 281 276 271 267 264 259 256 258 250 223 203 273 292
318 330 320 322 329 327 330 330 330 329 327 326 326 324 324 325 329 330 330 332 329 323 319 314 309 304 299 293 286 284 283 278 273 269 266 259 255 260 247 233 210 202 226 245
322 327 323 322 324 331 331 332 332 330 328 329 329 329 330 332 332 331 330 330 326 321 316 311 307 302 299 296 289 284 280 278 274 269 262 256 249 249 247 226 219 217 220 219
334 329 323 324 330 334 334 332 331 330 331 332 333 335 337 336 334 333 332 328 323 318 314 311 309 305 301 299 295 289 283 280 275 267 261 252 245 243 236 229 224 213 198 198
332 327 323 328 334 335 334 334 334 333 334 336 339 341 341 338 335 333 329 326 323 320 319 318 316 314 310 304 300 297 292 281 276 271 258 239 230 234 233 234 231 203 144 138
324 326 330 335 337 335 336 338 337 336 338 339 342 344 341 338 335 331 329 330 330 328 325 323 323 324 322 316 312 307 300 296 290 270 229 224 223 224 226 230 216 183 169 156
325 330 336 337 337 337 338 339 338 338 339 341 343 342 340 339 336 334 334 334 332 329 329 331 330 331 330 333 333 326 322 323 284 248 239 230 227 226 222 212 207 193 172 159
323 328 335 338 338 336 338 339 340 340 342 343 342 340 342 342 340 337 336 334 335 338 342 340 336 331 336 352 348 340 344 355 16 172 182 202 214 223 235 231 195 152 140 147
319 329 340 343 342 341 339 339 340 342 345 346 343 342 343 343 341 337 336 337 342 344 342 338 330 332 348 2 350 342 353 350 313 222 200 201 218 217 194 136 113 120 133 148
319 335 341 341 344 343 339 340 340 345 349 347 345 344 344 345 343 340 339 341 345 343 334 329 327 334 347 354 343 341 352 1 24 81 131 134 129 118 108 103 102 114 128 144
326 335 338 341 341 340 340 340 342 349 351 349 348 347 345 343 344 343 342 343 341 341 338 325 325 336 342 339 324 338 359 3 9 18 38 72 95 99 95 97 109 123 138 150
326 331 335 337 335 335 336 340 346 351 352 348 348 349 348 348 347 344 342 341 333 333 336 330 331 333 325 317 309 312 309 328 326 310 298 274 244 207 178 178 173 175 176 175
321 328 332 331 331 326 333 342 349 353 352 348 349 349 349 348 346 343 338 333 332 330 331 328 329 321 313 305 303 312 312 258 242 240 239 238 231 219 209 197 185 177 169 169
308 321 323 327 325 323 338 343 349 354 350 349 351 352 350 347 345 344 332 325 331 331 333 329 333 335 326 326 328 330 331 322 281 267 243 230 197 175 166 164 166 166 166 169
298 308 306 321 321 334 339 344 351 354 351 351 350 352 354 353 346 339 335 336 339 339 342 342 345 346 357 1 1 359 356 3 2 7 35 101 138 151 158 161 164 164 164 163
266 277 291 297 301 331 344 351 353 354 352 353 349 350 351 353 350 346 341 342 345 345 350 351 352 357 3 2 5 11 10 7 3 54 107 120 139 162 170 169 161 154 150 147
234 250 245 267 359 16 356 354 359 357 359 356 347 350 352 353 351 349 349 351 353 355 355 355 355 0 4 5 7 12 14 12 7 6 23 80 132 155 169 168 159 155 159 158
Height
1484 1474 1471 1477 1480 1482 1487 1495 1499 1498 1497 1494 1501 1504 1503 1501 1497 1494 1490 1485 1482 1479 1478 1476 1474 1471 1469 1467 1465 1462 1459 1456 1453 1451 1449 1446 1443 1441 1439 1437 1436 1433 1432 1434
1489 1476 1477 1487 1492 1493 1494 1498 1500 1500 1499 1497 1500 1501 1499 1496 1492 1488 1483 1478 1476 1475 1473 1471 1468 1466 1464 1461 1459 1456 1453 1450 1448 1445 1442 1439 1437 1435 1433 1432 1431 1429 1428 1428
1495 1478 1477 1500 1507 1504 1504 1503 1503 1502 1498 1497 1499 1500 1496 1492 1489 1483 1479 1477 1475 1471 1468 1465 1462 1459 1456 1453 1450 1448 1445 1442 1440 1438 1435 1432 1430 1427 1426 1425 1425 1424 1424 1424
1491 1486 1504 1516 1506 1505 1506 1503 1500 1500 1502 1502 1500 1497 1494 1490 1483 1480 1478 1474 1470 1466 1462 1458 1454 1451 1448 1445 1442 1439 1436 1434 1432 1430 1427 1424 1422 1420 1418 1418 1417 1417 1417 1418
1497 1500 1501 1509 1507 1508 1508 1504 1505 1505 1503 1501 1498 1494 1489 1486 1483 1479 1474 1469 1464 1460 1455 1450 1446 1443 1439 1435 1433 1430 1427 1425 1423 1421 1418 1415 1413 1411 1410 1410 1410 1410 1410 1411
1502 1510 1511 1516 1510 1509 1506 1500 1505 1505 1503 1500 1495 1488 1483 1481 1478 1473 1468 1463 1457 1451 1446 1441 1437 1433 1429 1426 1423 1420 1417 1415 1412 1410 1408 1405 1403 1401 1401 1402 1402 1403 1403 1405
1511 1512 1509 1513 1510 1510 1514 1514 1508 1505 1501 1498 1493 1489 1482 1475 1470 1465 1459 1454 1448 1442 1437 1432 1428 1423 1418 1415 1412 1409 1406 1403 1401 1399 1397 1395 1392 1391 1392 1393 1394 1395 1396 1398
1516 1518 1519 1512 1513 1516 1518 1512 1508 1504 1499 1494 1489 1482 1476 1469 1463 1456 1450 1444 1439 1433 1427 1423 1418 1413 1408 1405 1402 1399 1395 1392 1389 1387 1386 1385 1383 1382 1383 1384 1385 1387 1389 1391
1521 1523 1517 1517 1517 1517 1515 1511 1506 1501 1496 1490 1483 1476 1469 1462 1455 1449 1443 1436 1431 1425 1418 1413 1409 1404 1398 1394 1391 1386 1383 1380 1377 1375 1374 1374 1374 1373 1374 1375 1377 1379 1381 1384
1519 1517 1517 1518 1517 1516 1513 1509 1504 1499 1493 1486 1478 1471 1463 1455 1448 1442 1436 1430 1423 1416 1409 1403 1398 1392 1387 1381 1377 1373 1369 1366 1364 1364 1363 1364 1364 1365 1366 1367 1369 1371 1374 1377
1519 1517 1519 1517 1517 1514 1509 1505 1500 1495 1490 1483 1474 1466 1459 1451 1444 1437 1431 1424 1417 1409 1400 1392 1386 1379 1374 1369 1364 1360 1357 1355 1354 1353 1353 1354 1355 1356 1358 1360 1362 1364 1367 1371
1523 1521 1520 1517 1514 1511 1506 1501 1496 1490 1483 1477 1471 1462 1455 1448 1441 1434 1426 1417 1408 1399 1391 1383 1375 1369 1363 1359 1355 1352 1349 1347 1346 1345 1345 1346 1347 1349 1350 1353 1356 1359 1362 1366
1521 1520 1518 1515 1512 1508 1504 1498 1493 1487 1480 1473 1466 1460 1452 1445 1438 1430 1420 1410 1401 1392 1383 1375 1367 1361 1356 1352 1348 1344 1342 1340 1339 1338 1338 1339 1341 1343 1345 1348 1350 1353 1358 1362
1520 1518 1516 1513 1509 1505 1500 1495 1490 1484 1477 1471 1464 1457 1450 1443 1434 1424 1414 1404 1394 1385 1376 1369 1362 1356 1351 1346 1342 1338 1335 1333 1332 1332 1332 1333 1335 1338 1340 1343 1345 1348 1352 1357
1517 1516 1514 1510 1506 1502 1497 1492 1486 1479 1473 1467 1461 1454 1447 1439 1429 1419 1409 1399 1389 1380 1372 1365 1358 1352 1347 1342 1338 1333 1330 1328 1327 1327 1328 1329 1331 1334 1337 1340 1343 1346 1350 1353
1514 1513 1511 1508 1504 1499 1494 1488 1483 1476 1470 1464 1457 1452 1445 1436 1426 1416 1405 1395 1386 1377 1370 1363 1357 1351 1346 1341 1336 1332 1328 1326 1325 1325 1327 1328 1331 1333 1336 1338 1341 1345 1348 1351
1512 1510 1508 1505 1501 1497 1492 1487 1481 1475 1469 1462 1456 1449 1441 1432 1422 1412 1402 1393 1385 1377 1370 1364 1358 1352 1347 1342 1338 1334 1330 1328 1326 1327 1328 1330 1332 1334 1336 1338 1341 1344 1347 1350
1510 1508 1506 1503 1500 1495 1490 1485 1480 1474 1468 1462 1455 1447 1439 1430 1421 1410 1401 1392 1384 1377 1371 1365 1359 1354 1350 1346 1342 1339 1336 1333 1331 1331 1331 1332 1334 1336 1337 1339 1341 1345 1348 1351
1507 1505 1503 1501 1497 1493 1488 1483 1478 1472 1466 1460 1453 1445 1438 1430 1421 1411 1402 1393 1385 1378 1371 1366 1362 1358 1355 1351 1347 1345 1342 1340 1338 1337 1337 1337 1338 1339 1341 1342 1344 1347 1349 1353
1504 1503 1501 1498 1495 1491 1486 1482 1476 1471 1465 1459 1452 1444 1436 1429 1421 1411 1403 1395 1389 1382 1375 1370 1365 1362 1359 1355 1352 1350 1348 1345 1344 1343 1343 1343 1343 1344 1345 1346 1348 1349 1352 1355
1501 1500 1498 1495 1492 1489 1485 1480 1475 1470 1464 1457 1451 1444 1437 1429 1421 1413 1405 1397 1390 1383 1377 1372 1368 1365 1362 1358 1355 1353 1351 1349 1348 1346 1346 1346 1346 1346 1347 1349 1350 1352 1354 1357
1498 1497 1495 1492 1489 1486 1483 1479 1474 1469 1463 1456 1450 1444 1437 1429 1421 1414 1408 1402 1394 1387 1380 1375 1371 1367 1364 1361 1357 1355 1352 1350 1348 1346 1345 1344 1345 1345 1347 1348 1350 1352 1354 1357
1495 1494 1492 1490 1487 1484 1481 1477 1473 1468 1462 1456 1450 1444 1438 1431 1425 1417 1410 1404 1397 1391 1384 1379 1375 1370 1365 1362 1359 1356 1354 1350 1347 1345 1343 1342 1342 1343 1344 1346 1348 1351 1354 1358
1492 1491 1489 1487 1484 1482 1479 1475 1471 1467 1462 1456 1450 1444 1438 1431 1424 1419 1413 1406 1400 1394 1389 1384 1379 1374 1369 1364 1361 1359 1356 1353 1350 1347 1345 1344 1344 1345 1347 1350 1353 1356 1359 1363
1488 1487 1486 1484 1482 1479 1477 1474 1470 1465 1460 1455 1449 1444 1438 1433 1426 1420 1414 1408 1403 1397 1392 1388 1384 1379 1374 1369 1365 1362 1360 1358 1355 1353 1351 1350 1350 1351 1353 1356 1359 1362 1365 1369
1484 1483 1482 1480 1479 1477 1475 1472 1469 1465 1460 1454 1448 1442 1437 1432 1426 1420 1415 1410 1405 1400 1395 1391 1387 1383 1380 1376 1372 1368 1365 1363 1361 1360 1358 1357 1357 1358 1360 1362 1364 1367 1370 1373
1479 1478 1477 1478 1476 1475 1473 1471 1468 1464 1460 1454 1448 1443 1437 1432 1426 1421 1416 1412 1407 1403 1398 1394 1390 1387 1384 1380 1377 1373 1370 1367 1366 1365 1364 1364 1364 1364 1366 1367 1369 1371 1374 1376